RH
27 23 16 18 28 33 36 39 41 48 50 48 46 42 45 44 40 39 38 35 33 31 31 30 26 23 28 23 22 20 18 17 15 15 17 22 19 18 20 20 22 22 22 22 22 21 22 20 20
31 26 16 22 32 38 36 36 39 42 45 44 45 44 49 46 43 41 40 37 36 34 33 31 29 24 31 27 25 19 17 15 14 16 18 28 25 20 21 22 19 20 20 16 17 20 21 20 21
40 28 17 26 35 36 34 36 41 36 41 43 41 44 48 47 44 42 41 41 37 35 35 34 32 32 32 27 21 18 17 15 15 13 17 28 24 21 21 20 19 18 17 15 16 18 15 16 17
47 34 22 21 30 32 31 36 34 35 37 43 39 45 47 44 44 43 43 42 39 36 35 35 35 32 26 22 18 17 16 14 14 16 18 28 27 26 21 20 18 18 17 16 15 16 14 14 16
46 43 30 20 23 29 32 28 30 36 37 41 38 39 44 44 44 44 43 42 40 37 36 35 37 34 29 22 17 16 15 13 13 17 19 22 29 27 21 18 17 16 14 15 15 16 15 13 15
42 46 41 29 22 25 30 31 32 34 39 42 40 39 41 42 44 44 44 43 41 37 37 37 37 38 34 30 23 17 14 12 10 12 18 20 23 23 19 16 15 13 13 14 16 17 18 16 15
41 47 48 34 26 25 28 33 34 33 41 44 41 43 41 39 43 42 44 43 40 37 37 40 38 39 40 36 33 27 19 16 11 10 13 17 17 18 15 16 14 13 14 20 21 21 19 18 17
43 44 49 42 29 27 27 32 35 34 42 46 49 48 43 40 41 39 41 41 39 36 37 39 42 40 40 39 37 34 30 25 20 13 17 14 16 14 12 13 13 14 16 19 21 15 16 16 17
47 45 49 50 32 28 29 35 36 35 39 50 51 46 42 39 40 40 40 39 36 37 37 38 42 43 40 39 38 37 35 30 26 21 18 16 14 14 13 14 14 15 17 18 18 21 17 17 16
49 47 44 52 39 30 32 34 36 36 35 43 46 42 41 43 43 43 42 38 35 37 37 37 40 43 41 38 38 37 35 32 28 25 22 20 19 19 19 19 20 21 22 22 22 23 22 21 20
49 46 43 49 50 36 33 32 35 37 37 41 41 36 42 44 43 43 40 37 35 36 36 37 39 42 41 39 38 38 35 33 31 28 25 24 23 24 25 25 26 25 26 26 26 26 25 24 23
49 45 44 49 52 44 31 32 33 32 33 37 37 36 43 43 42 41 39 38 36 35 35 36 39 40 41 40 37 36 35 32 29 29 28 28 28 28 29 30 31 31 31 31 31 31 30 29 28
53 47 46 49 52 54 39 29 30 28 29 33 37 35 39 39 40 39 39 39 36 34 34 36 38 38 39 37 32 31 30 29 28 27 28 30 30 31 31 32 32 32 33 34 34 33 32 32 32
53 50 48 49 53 54 49 31 32 24 26 29 31 32 33 36 37 37 39 38 36 34 32 35 37 36 33 26 25 27 28 28 27 26 25 26 27 28 29 29 29 31 32 32 32 32 33 31 32
58 56 52 47 50 55 52 35 24 23 23 24 28 28 26 31 33 34 37 36 33 32 33 33 34 32 26 25 26 27 28 29 29 30 28 26 26 26 27 27 29 32 35 35 35 34 35 35 36
61 59 56 45 49 53 48 30 19 21 22 25 27 26 26 28 30 33 33 32 31 32 34 32 29 24 26 28 30 30 30 30 30 31 32 34 36 37 37 36 36 36 37 39 39 40 40 40 41
60 57 54 49 49 46 44 33 20 24 24 27 28 27 26 26 30 30 30 29 29 29 29 26 22 23 26 29 30 31 30 31 32 32 33 35 38 39 41 42 42 43 44 44 46 46 49 49 48
59 56 53 52 52 44 44 32 23 27 27 28 29 30 29 28 30 29 28 25 26 27 26 27 24 22 24 27 28 29 30 32 35 37 39 40 42 44 47 49 49 50 50 49 50 51 53 53 51
60 59 57 56 53 45 44 33 23 28 27 26 27 30 31 29 28 24 20 24 29 30 28 23 23 23 24 25 26 28 31 35 38 40 43 45 48 49 51 52 50 49 47 45 44 45 45 44 46
60 63 61 59 54 46 46 37 23 28 27 28 29 31 30 25 22 23 26 29 31 30 26 26 25 25 25 25 26 28 31 33 35 38 41 42 43 43 41 39 37 37 36 37 39 42 45 46 47
70 63 67 63 58 50 46 42 24 24 26 29 29 27 25 23 24 28 29 31 32 30 28 27 27 26 25 25 27 30 33 36 38 38 37 36 35 35 35 35 35 37 38 38 39 41 43 47 47
83 66 70 64 65 57 47 51 32 23 27 29 29 28 28 28 31 30 32 33 32 31 31 30 28 27 27 28 29 33 35 35 36 36 36 36 36 36 38 38 37 35 33 32 32 33 34 35 36
68 73 73 67 62 53 50 52 35 23 28 29 28 30 32 31 33 34 33 33 34 33 32 30 28 28 29 30 32 34 36 38 38 37 37 37 36 34 30 29 29 30 30 31 31 31 31 31 31
75 76 74 68 61 61 50 47 37 26 26 27 29 33 35 34 34 34 35 35 33 34 32 31 30 31 34 35 37 39 39 38 38 37 36 32 30 31 31 32 33 34 34 34 33 33 34 34 34
81 80 86 73 69 59 46 47 36 24 26 27 32 34 36 35 34 35 34 34 34 33 33 32 35 38 39 40 40 40 40 39 36 32 30 30 31 32 32 33 33 33 33 32 32 32 32 32 33
80 77 72 70 66 55 48 44 30 24 24 26 30 31 35 36 36 36 35 36 35 35 36 39 42 42 43 44 43 41 37 32 30 30 31 33 33 33 33 33 32 31 29 27 25 24 24 25 28
80 77 65 67 60 60 51 39 30 29 30 29 30 32 37 37 37 36 36 38 39 40 42 44 44 44 45 45 42 36 33 34 34 34 35 37 36 33 30 27 25 23 21 20 18 18 18 20 24
71 70 69 67 65 61 50 42 39 31 31 32 33 35 36 38 38 39 41 43 44 44 44 44 44 47 48 44 38 35 36 37 39 40 38 34 29 26 24 21 20 19 19 19 18 18 17 18 24
66 60 61 62 62 59 54 42 33 30 33 37 38 38 39 40 42 44 46 45 42 43 46 48 50 49 44 38 38 39 41 39 36 33 29 26 24 22 21 21 21 20 20 19 18 18 18 18 20
62 60 59 63 59 56 50 39 30 33 36 39 41 41 43 45 46 44 41 42 44 49 53 51 46 41 41 40 41 42 39 37 34 29 26 25 24 24 23 21 21 21 21 21 20 20 20 22 24